• In France
  • List of Countries
  • For 7 days
  • Water Temperature
  • Satellite Maps
  • Weather Map
  • Weather Widgets
  • user-avatar
    Login

    Hourly Weather Ngo

    Today, 18 February, Sunday

    Time Temperature Precipitation Wind Pressure Humidity
    00:00 +25°C° 0 mm 3 mps 708 mmHg 86%
    01:00 +25°C° 0 mm 3 mps 708 mmHg 87%
    02:00 +25°C° 0 mm 3 mps 708 mmHg 87%
    03:00 +24°C° 0 mm 3 mps 708 mmHg 88%
    04:00 +24°C° 0 mm 3 mps 708 mmHg 89%
    05:00 +24°C° 0 mm 3 mps 708 mmHg 88%
    06:00 +24°C° 0 mm 3 mps 709 mmHg 87%
    07:00 +24°C° 0 mm 3 mps 709 mmHg 86%
    08:00 +26°C° 0.1 mm 3 mps 709 mmHg 81%
    09:00 +27°C° 0.1 mm 3 mps 710 mmHg 75%
    10:00 +28°C° 0.1 mm 2 mps 710 mmHg 70%
    11:00 +29°C° 0.6 mm 2 mps 709 mmHg 65%
    12:00 +30°C° 0.6 mm 2 mps 709 mmHg 61%
    13:00 +31°C° 0.6 mm 2 mps 708 mmHg 57%
    14:00 +31°C° 0.1 mm 2 mps 708 mmHg 56%
    15:00 +31°C° 0.1 mm 2 mps 708 mmHg 55%
    16:00 +31°C° 0.1 mm 1 mps 707 mmHg 54%
    17:00 +30°C° 0.7 mm 1 mps 707 mmHg 61%
    18:00 +28°C° 0.7 mm 1 mps 707 mmHg 68%
    19:00 +26°C° 0.7 mm 1 mps 707 mmHg 75%
    20:00 +26°C° 0.9 mm 1 mps 708 mmHg 79%
    21:00 +25°C° 0.9 mm 1 mps 708 mmHg 83%
    22:00 +24°C° 0.9 mm 1 mps 709 mmHg 88%
    23:00 +24°C° 0.2 mm 1 mps 708 mmHg 88%

    Tomorrow, 19 February, Monday

    Time Temperature Precipitation Wind Pressure Humidity
    00:00 +24°C° 0.2 mm 1 mps 708 mmHg 89%
    01:00 +24°C° 0.2 mm 1 mps 708 mmHg 90%
    02:00 +24°C° 0.9 mm 1 mps 708 mmHg 90%
    03:00 +24°C° 0.9 mm 1 mps 708 mmHg 90%
    04:00 +24°C° 0.9 mm 1 mps 708 mmHg 90%
    05:00 +24°C° 2 mm 1 mps 708 mmHg 91%
    06:00 +23°C° 2 mm 1 mps 708 mmHg 92%
    07:00 +23°C° 2 mm 1 mps 709 mmHg 92%
    08:00 +24°C° 2.5 mm 1 mps 709 mmHg 91%
    09:00 +24°C° 2.5 mm 2 mps 710 mmHg 90%
    10:00 +24°C° 2.5 mm 2 mps 710 mmHg 89%
    11:00 +24°C° 1.4 mm 2 mps 709 mmHg 88%
    12:00 +24°C° 1.4 mm 3 mps 709 mmHg 87%
    13:00 +24°C° 1.4 mm 3 mps 708 mmHg 85%
    14:00 +24°C° 0.2 mm 3 mps 708 mmHg 84%
    15:00 +24°C° 0.2 mm 3 mps 707 mmHg 84%
    16:00 +24°C° 0.2 mm 3 mps 707 mmHg 83%
    17:00 +24°C° 0.1 mm 2 mps 707 mmHg 85%
    18:00 +24°C° 0.1 mm 2 mps 708 mmHg 87%
    19:00 +23°C° 0.1 mm 1 mps 708 mmHg 89%
    20:00 +23°C° 0.1 mm 1 mps 709 mmHg 90%
    21:00 +23°C° 0.1 mm 1 mps 709 mmHg 90%
    22:00 +23°C° 0.1 mm 1 mps 709 mmHg 91%
    23:00 +23°C° 0 mm 2 mps 709 mmHg 90%

    Day after tomorrow, 20 February, Tuesday

    Time Temperature Precipitation Wind Pressure Humidity
    00:00 +23°C° 0 mm 2 mps 708 mmHg 90%
    01:00 +23°C° 0 mm 2 mps 708 mmHg 89%
    02:00 +21°C° 0 mm 2 mps 708 mmHg 90%
    03:00 +21°C° 0 mm 2 mps 708 mmHg 91%
    04:00 +22°C° 0 mm 1 mps 707 mmHg 91%
    05:00 +22°C° 0.1 mm 1 mps 708 mmHg 91%
    06:00 +21°C° 0.1 mm 2 mps 708 mmHg 91%
    07:00 +21°C° 0.1 mm 2 mps 709 mmHg 90%
    08:00 +23°C° 0.1 mm 2 mps 709 mmHg 87%
    09:00 +24°C° 0.1 mm 2 mps 710 mmHg 83%
    10:00 +25°C° 0.1 mm 2 mps 710 mmHg 79%
    11:00 +26°C° 0.1 mm 2 mps 709 mmHg 73%
    12:00 +28°C° 0.1 mm 2 mps 709 mmHg 67%
    13:00 +29°C° 0.1 mm 2 mps 708 mmHg 61%
    14:00 +29°C° 0 mm 2 mps 707 mmHg 61%
    15:00 +29°C° 0 mm 2 mps 706 mmHg 60%
    16:00 +29°C° 0 mm 2 mps 706 mmHg 59%
    17:00 +28°C° 0 mm 2 mps 706 mmHg 65%
    18:00 +26°C° 0 mm 2 mps 706 mmHg 71%
    19:00 +25°C° 0 mm 1 mps 707 mmHg 78%
    20:00 +25°C° 0 mm 1 mps 707 mmHg 80%
    21:00 +24°C° 0 mm 2 mps 708 mmHg 82%
    22:00 +24°C° 0 mm 2 mps 708 mmHg 84%
    23:00 +23°C° 0 mm 2 mps 708 mmHg 85%

    21 February, Wednesday

    Time Temperature Precipitation Wind Pressure Humidity
    00:00 +23°C° 0 mm 2 mps 708 mmHg 85%
    01:00 +23°C° 0 mm 2 mps 707 mmHg 85%
    02:00 +23°C° 0 mm 2 mps 707 mmHg 86%
    03:00 +23°C° 0 mm 2 mps 707 mmHg 87%
    04:00 +21°C° 0 mm 2 mps 707 mmHg 88%
    05:00 +23°C° 0 mm 2 mps 707 mmHg 87%
    06:00 +23°C° 0 mm 2 mps 708 mmHg 86%
    07:00 +23°C° 0 mm 2 mps 708 mmHg 85%
    08:00 +25°C° 0 mm 2 mps 709 mmHg 77%
    09:00 +27°C° 0 mm 2 mps 709 mmHg 69%
    10:00 +28°C° 0 mm 2 mps 710 mmHg 61%
    11:00 +30°C° 0 mm 2 mps 709 mmHg 55%
    12:00 +32°C° 0 mm 2 mps 708 mmHg 50%
    13:00 +34°C° 0 mm 2 mps 707 mmHg 45%
    14:00 +34°C° 0 mm 2 mps 707 mmHg 45%
    15:00 +34°C° 0 mm 2 mps 706 mmHg 46%
    16:00 +34°C° 0 mm 2 mps 706 mmHg 46%
    17:00 +31°C° 0.4 mm 2 mps 706 mmHg 53%
    18:00 +29°C° 0.4 mm 2 mps 706 mmHg 61%
    19:00 +27°C° 0.4 mm 2 mps 707 mmHg 68%
    20:00 +27°C° 0.2 mm 2 mps 707 mmHg 71%
    21:00 +26°C° 0.2 mm 3 mps 707 mmHg 75%
    22:00 +25°C° 0.2 mm 3 mps 708 mmHg 78%
    23:00 +25°C° 0 mm 3 mps 707 mmHg 80%

    22 February, Thursday

    Time Temperature Precipitation Wind Pressure Humidity
    00:00 +25°C° 0 mm 3 mps 707 mmHg 82%
    01:00 +24°C° 0 mm 3 mps 707 mmHg 83%
    02:00 +24°C° 0 mm 2 mps 707 mmHg 84%
    03:00 +24°C° 0 mm 2 mps 707 mmHg 84%
    04:00 +24°C° 0 mm 2 mps 707 mmHg 85%
    05:00 +24°C° 0 mm 2 mps 707 mmHg 85%
    06:00 +24°C° 0 mm 2 mps 707 mmHg 86%
    07:00 +24°C° 0 mm 2 mps 708 mmHg 86%
    08:00 +25°C° 0 mm 2 mps 708 mmHg 80%
    09:00 +27°C° 0 mm 2 mps 709 mmHg 74%
    10:00 +28°C° 0 mm 2 mps 709 mmHg 68%
    11:00 +29°C° 0.1 mm 2 mps 708 mmHg 66%
    12:00 +29°C° 0.1 mm 2 mps 708 mmHg 64%
    13:00 +30°C° 0.1 mm 2 mps 707 mmHg 61%
    14:00 +30°C° 0 mm 2 mps 706 mmHg 62%
    15:00 +29°C° 0 mm 2 mps 706 mmHg 63%
    16:00 +29°C° 0 mm 2 mps 705 mmHg 64%
    17:00 +28°C° 0 mm 1 mps 706 mmHg 67%
    18:00 +27°C° 0 mm 1 mps 706 mmHg 71%
    19:00 +26°C° 0 mm 1 mps 706 mmHg 75%
    20:00 +26°C° 0 mm 1 mps 706 mmHg 75%
    21:00 +25°C° 0 mm 1 mps 707 mmHg 76%
    22:00 +25°C° 0 mm 1 mps 707 mmHg 76%
    23:00 +25°C° 0 mm 1 mps 707 mmHg 76%

    23 February, Friday

    Time Temperature Precipitation Wind Pressure Humidity
    00:00 +25°C° 0 mm 1 mps 706 mmHg 76%
    01:00 +24°C° 0 mm 1 mps 706 mmHg 75%
    02:00 +24°C° 0 mm 1 mps 706 mmHg 75%
    03:00 +24°C° 0 mm 1 mps 706 mmHg 76%
    04:00 +24°C° 0 mm 1 mps 706 mmHg 76%
    05:00 +24°C° 0 mm 1 mps 706 mmHg 75%
    06:00 +24°C° 0 mm 1 mps 707 mmHg 74%
    07:00 +25°C° 0 mm 1 mps 707 mmHg 73%
    08:00 +26°C° 0 mm 1 mps 708 mmHg 67%
    09:00 +28°C° 0 mm 1 mps 708 mmHg 62%
    10:00 +30°C° 0 mm 2 mps 709 mmHg 56%
    11:00 +32°C° 0 mm 2 mps 708 mmHg 51%
    12:00 +34°C° 0 mm 2 mps 707 mmHg 47%
    13:00 +36°C° 0 mm 2 mps 706 mmHg 43%
    14:00 +35°C° 0 mm 2 mps 706 mmHg 44%
    15:00 +34°C° 0 mm 1 mps 706 mmHg 46%
    16:00 +33°C° 0 mm 1 mps 706 mmHg 48%
    17:00 +32°C° 0 mm 1 mps 706 mmHg 52%
    18:00 +30°C° 0 mm 1 mps 706 mmHg 56%
    19:00 +29°C° 0 mm 1 mps 706 mmHg 60%
    20:00 +28°C° 0 mm 1 mps 706 mmHg 62%
    21:00 +28°C° 0 mm 1 mps 706 mmHg 64%
    22:00 +27°C° 0 mm 1 mps 707 mmHg 66%
    23:00 +26°C° 0 mm 1 mps 706 mmHg 68%
    Show more